Location: Bottom School (historical)
(37.9078°N, 89.3593°W)
Time: 18:41:54
(UTC+00:00)

SL-4 R/B - Pass Details

Date: 07 July 2022
Orbit: 425 x 653 km, 51.6° (Epoch: 15 August)

Event Time Altitude Azimuth Distance (km) Brightness Sun altitude
Exits shadow 06:10:49 15° 327° (NNW) 1,310 4.5 -29.5°
Maximum altitude 06:11:30 16° 341° (NNW) 1,285 4.6 -29.5°
Drops below altitude 10° 06:13:48 10° 20° (NNE) 1,626 5.3 -29.5°
Sets 06:16:43 0° 43° (NE) 2,554 6.1 -29.4°
